Home > Weather > Luanda > Past weeks

Flag for Angola Weather for the Past 2 Weeks in Luanda, Angola

Now
81 °F

Passing clouds.


Feels Like: 86 °F
Forecast: 80 / 87 °F
Wind: 2 mph from North

Location: Luanda Airport

Current Time: Feb 12, 2016 at 11:44:41 PM

Latest Report: Feb 12, 2016 at 11:00 PM


Visibility: N/A

Pressure: 29.86 "Hg

Humidity: 84%

Dew point: 75 °F

Location of LuandaLocation

Historic Weather in Luanda — Graph

°F

Luanda Temperature Yesterday

Maximum temperature yesterday: 86 °F (at 12:00 PM)
Minimum temperature yesterday: 75 °F (at 1:00 AM)
Average temperature yesterday: 80 °F

High & Low Weather Summary for the Past Weeks

 TemperatureHumidityPressure
High91 °F (Jan 29, 2:00 PM)100% (Feb 8, 6:40 AM)29.95 "Hg (Feb 8, 6:40 AM)
Low73 °F (Feb 8, 8:00 AM)42% (Feb 9, 11:00 PM)29.74 "Hg (Feb 4, 4:00 PM)
Average82 °F80%29.85 "Hg
* Reported Jan 28 10:00 PM — Feb 12 10:00 PM, Luanda, Weather by CustomWeather, © 2016

Note: Actual official high and low records may vary slightly from our data, if they occured in-between our weather recording intervals... More about our weather records

Advertising

Luanda Weather History for the Previous 24 Hours

 ConditionsComfort  
Time TempWeatherWind HumidityBarometerVisibility
10:00 PM
Fri, Feb 12
82 °FPassing clouds.3 mph79%29.86 "HgN/A
9:00 PM82 °FPassing clouds.5 mph74%29.83 "HgN/A
8:00 PM82 °FPassing clouds.7 mph74%29.80 "HgN/A
7:00 PM84 °FPassing clouds.8 mph70%29.80 "HgN/A
6:00 PM86 °FScattered clouds.8 mph70%29.77 "HgN/A
5:00 PM86 °FScattered clouds.8 mph70%29.77 "HgN/A
4:00 PM86 °FPartly sunny.7 mph75%29.77 "HgN/A
3:00 PM86 °FPartly sunny.5 mph70%29.80 "HgN/A
2:00 PM88 °FPartly sunny.7 mph66%29.80 "HgN/A
1:00 PM88 °FBroken clouds.7 mph66%29.83 "HgN/A
12:00 PM84 °FBroken clouds.5 mph74%29.86 "HgN/A
11:00 AM82 °FPartly sunny.7 mph74%29.86 "HgN/A
10:00 AM86 °FBroken clouds.7 mph66%29.89 "HgN/A
9:00 AM82 °FBroken clouds.7 mph79%29.89 "HgN/A
8:00 AM82 °FBroken clouds.5 mph79%29.86 "HgN/A
7:00 AM79 °FPartly sunny.5 mph89%29.83 "HgN/A
6:00 AM77 °FPartly cloudy.3 mph94%29.83 "HgN/A
5:00 AM79 °FPassing clouds.3 mph89%29.80 "HgN/A
4:00 AM79 °FPassing clouds.2 mph89%29.80 "HgN/A
3:00 AM79 °FPassing clouds.2 mph89%29.83 "HgN/A
2:00 AM79 °FPassing clouds.2 mph89%29.83 "HgN/A
1:00 AM81 °FPassing clouds.2 mph84%29.83 "HgN/A
12:00 AM81 °FPassing clouds.3 mph84%29.86 "HgN/A
11:00 PM
Thu, Feb 11
81 °FPassing clouds.5 mph84%29.83 "HgN/A
Weather by CustomWeather, © 2016

See weather overviewHow to use our weather pages